Weather History for KMPO - August, 2013

Change the Weather History Date:

Thursday, August 29, 2013

  Actual Average Record
Temperature  
Mean Temperature 70 °F 65 °F  
Max Temperature 80 °F 74 °F 90 °F (1953)
Min Temperature 60 °F 55 °F 35 °F (1907)
Degree Days  
Heating Degree Days 0 2  
Month to date heating degree days 53 35  
Since 1 June heating degree days 140 157  
Since 1 July heating degree days 64 57  
Cooling Degree Days 5 2  
Month to date cooling degree days 62 94  
Year to date cooling degree days 401 296  
Since 1 June cooling degree days 369 277  
Growing Degree Days 16 (Base 50)    
Moisture  
Dew Point 64 °F    
Average Humidity 92    
Maximum Humidity 100    
Minimum Humidity 84    
Precipitation  
Precipitation 0.17 in 0.10 in 2.74 in (1949)
Month to date precipitation 5.64 4.25  
Year to date precipitation 35.65 30.77  
Sea Level Pressure  
Sea Level Pressure 30.03 in    
Wind  
Wind Speed 3 mph (East)    
Max Wind Speed 10 mph    
Max Gust Speed 15 mph    
Visibility 4 miles    
Events Fog , Rain    
T = Trace of Precipitation, MM = Missing Value Source: NWS Daily Summary

Daily Weather History Graph

Daily Weather History Graph

Search for Another Location

Airport or City:

Trip Planner

Search our weather history database for the weather conditions in past years. The results will help you decide how hot, cold, wet, or windy it might be!

Date:

Astronomy

Aug. 29, 2013 Rise Set
Actual Time 6:25 AM EDT 7:38 PM EDT
Civil Twilight 5:56 AM EDT 8:07 PM EDT
Nautical Twilight 5:22 AM EDT 8:41 PM EDT
Astronomical Twilight 4:46 AM EDT 9:16 PM EDT
Moon 12:13 AM EDT (8/29) 3:07 PM EDT (8/29)
Length of Visible Light 14h 10m
Length of Day
13h 13m
Last Quarter, 38% of the Moon is Illuminated
Aug 29
Last Quarter
Sep 5
New
Sep 12
First Quarter
Sep 19
Full
Sep 26
Last Quarter

Hourly Weather History & Observations

Time (EDT) Temp. Dew Point Humidity Pressure Visibility Wind Dir Wind Speed Gust Speed Precip Events Conditions
12:01 AM 66.2 °F 64.4 °F 94% 29.97 in 0.8 mi ENE 5.8 mph - N/A   Mist
12:18 AM 66.2 °F 64.4 °F 94% 29.97 in 1.0 mi East 5.8 mph - N/A   Overcast
12:28 AM 66.2 °F 64.4 °F 94% 29.97 in 0.8 mi ENE 4.6 mph - N/A   Mist
12:38 AM 66.2 °F 64.4 °F 94% 29.97 in 1.2 mi East 3.5 mph - N/A   Overcast
12:49 AM 66.2 °F 64.4 °F 94% 29.97 in 0.2 mi East 3.5 mph - N/A Fog Fog
12:53 AM 66.0 °F 64.9 °F 96% 29.94 in 0.2 mi East 3.5 mph - N/A Fog Fog
1:53 AM 64.9 °F 63.0 °F 93% 29.95 in 0.2 mi Calm Calm - N/A Fog Fog
2:53 AM 63.0 °F 62.1 °F 97% 29.96 in 1.0 mi Calm Calm - 0.01 in   Overcast
2:58 AM 62.6 °F 60.8 °F 94% 29.98 in 3.0 mi Calm Calm - N/A   Overcast
3:53 AM 64.0 °F 63.0 °F 96% 29.96 in 7.0 mi ENE 6.9 mph - N/A   Clear
4:53 AM 63.0 °F 61.0 °F 93% 29.97 in 5.0 mi Calm Calm - N/A   Clear
5:06 AM 62.6 °F 60.8 °F 94% 29.99 in 2.5 mi Calm Calm - N/A   Clear
5:21 AM 60.8 °F 59.0 °F 94% 30.00 in 3.0 mi Calm Calm - N/A   Clear
5:53 AM 61.0 °F 59.0 °F 93% 29.99 in 5.0 mi Calm Calm - N/A   Clear
6:28 AM 60.8 °F 60.8 °F 100% 30.02 in 5.0 mi NE 4.6 mph - N/A   Partly Cloudy
6:53 AM 60.1 °F 59.0 °F 96% 30.01 in 4.0 mi Calm Calm - N/A   Clear
7:53 AM 64.9 °F 63.0 °F 93% 30.01 in 4.0 mi Calm Calm - N/A   Clear
7:57 AM 64.4 °F 62.6 °F 94% 30.04 in 2.5 mi Calm Calm - N/A   Partly Cloudy
8:13 AM 66.2 °F 64.4 °F 94% 30.04 in 5.0 mi NE 3.5 mph - N/A   Partly Cloudy
8:53 AM 66.9 °F 64.9 °F 93% 30.03 in 6.0 mi ESE 5.8 mph - N/A   Scattered Clouds
8:57 AM 66.2 °F 64.4 °F 94% 30.06 in 2.0 mi East 5.8 mph - N/A   Mostly Cloudy
8:59 AM 66.2 °F 64.4 °F 94% 30.06 in 0.8 mi ESE 6.9 mph - N/A   Mostly Cloudy
9:03 AM 66.2 °F 64.4 °F 94% 30.06 in 0.2 mi East 5.8 mph - N/A Fog Fog
9:17 AM 66.2 °F 64.4 °F 94% 30.06 in 0.8 mi Variable 4.6 mph - N/A   Overcast
9:21 AM 66.2 °F 64.4 °F 94% 30.06 in 2.0 mi East 4.6 mph - N/A   Overcast
9:28 AM 68.0 °F 64.4 °F 88% 30.06 in 6.0 mi ESE 4.6 mph - N/A   Overcast
9:53 AM 66.9 °F 64.9 °F 93% 30.04 in 4.0 mi East 3.5 mph - N/A   Overcast
9:59 AM 66.2 °F 64.4 °F 94% 30.07 in 1.8 mi East 3.5 mph - N/A   Overcast
10:09 AM 66.2 °F 64.4 °F 94% 30.07 in 3.0 mi ESE 3.5 mph - N/A   Overcast
10:43 AM 69.8 °F 64.4 °F 83% 30.07 in 10.0 mi ESE 6.9 mph - N/A   Scattered Clouds
10:53 AM 70.0 °F 64.9 °F 84% 30.05 in 10.0 mi ESE 5.8 mph - N/A   Clear
8:14 PM 71.6 °F 66.2 °F 83% 30.07 in 9.0 mi Calm Calm - N/A   Overcast
8:32 PM 69.8 °F 66.2 °F 88% 30.08 in 1.8 mi NE 6.9 mph - 0.15 in Rain Heavy Rain
8:42 PM 69.8 °F 66.2 °F 88% 30.08 in 3.0 mi Variable 4.6 mph - 0.16 in Rain Light Rain
8:53 PM 68.0 °F 66.0 °F 93% 30.06 in 10.0 mi ESE 6.9 mph - 0.16 in   Mostly Cloudy
9:01 PM 68.0 °F 66.2 °F 94% 30.08 in 10.0 mi East 5.8 mph - N/A   Scattered Clouds
9:53 PM 66.0 °F 64.9 °F 96% 30.06 in 5.0 mi Calm Calm - N/A   Scattered Clouds
10:12 PM 66.2 °F 64.4 °F 94% 30.07 in 1.8 mi Calm Calm - N/A   Scattered Clouds
10:20 PM 66.2 °F 64.4 °F 94% 30.07 in 0.5 mi Calm Calm - N/A Fog Fog
10:38 PM 64.4 °F 64.4 °F 100% 30.07 in 3.0 mi South 3.5 mph - N/A   Mostly Cloudy
10:49 PM 66.2 °F 64.4 °F 94% 30.07 in 6.0 mi Calm Calm - N/A   Mostly Cloudy
10:53 PM 66.0 °F 64.9 °F 96% 30.04 in 6.0 mi Calm Calm - N/A   Overcast
11:53 PM 66.9 °F 66.0 °F 97% 30.06 in 3.0 mi South 3.5 mph - N/A   Overcast